Weather History for Bolton Field, OH

Change the Weather History Date:

Sunday, June 23, 2013

  Actual Average Record
Temperature  
Mean Temperature 75 °F -  
Max Temperature 87 °F 81 °F 91 °F (2002)
Min Temperature 63 °F 62 °F 53 °F (2008)
Cooling Degree Days 10    
Growing Degree Days 25 (Base 50)    
Moisture  
Dew Point 64 °F    
Average Humidity 81    
Maximum Humidity 99    
Minimum Humidity 46    
Precipitation  
Precipitation 0.00 in - - ()
Sea Level Pressure  
Sea Level Pressure 30.12 in    
Wind  
Wind Speed 2 mph (SW)    
Max Wind Speed 14 mph    
Max Gust Speed 20 mph    
Visibility 8 miles    
Events      
Averages and records for this station are not official NWS values.
T = Trace of Precipitation, MM = Missing Value Source: NWS Daily Summary

Daily Weather History Graph

Daily Weather History Graph

Search for Another Location

Airport:

Trip Planner

Search our weather history database for the weather conditions in past years. The results will help you decide how hot, cold, wet, or windy it might be!

Date:

Astronomy

Jun. 23, 2013 Rise Set
Actual Time 6:04 AM EDT 9:04 PM EDT
Civil Twilight 5:31 AM EDT 9:37 PM EDT
Nautical Twilight 4:50 AM EDT 10:19 PM EDT
Astronomical Twilight 4:01 AM EDT 11:07 PM EDT
Moon 9:16 PM EDT (6/23) 6:20 AM EDT (6/23)
Length of Visible Light 16h 05m
Length of Day
15h 00m
Full, 100% of the Moon is Illuminated
Jun 23
Full
Jun 30
Last Quarter
Jul 8
New
Jul 15
First Quarter
Jul 22
Full

Hourly Weather History & Observations

Time (EDT) Temp. Heat Index Dew Point Humidity Pressure Visibility Wind Dir Wind Speed Gust Speed Precip Events Conditions
12:15 AM 69.4 °F - 65.5 °F 87% 30.13 in 10.0 mi Calm Calm - N/A   Clear
12:35 AM 68.2 °F - 65.5 °F 91% 30.13 in 10.0 mi Calm Calm - N/A   Clear
12:55 AM 67.6 °F - 65.3 °F 92% 30.12 in 10.0 mi Calm Calm - N/A   Clear
1:15 AM 67.8 °F - 65.1 °F 91% 30.12 in 10.0 mi Calm Calm - N/A   Clear
1:35 AM 68.4 °F - 64.4 °F 87% 30.12 in 10.0 mi Calm Calm - N/A   Clear
1:55 AM 66.9 °F - 64.2 °F 91% 30.11 in 10.0 mi Calm Calm - N/A   Clear
2:15 AM 67.1 °F - 64.4 °F 91% 30.11 in 10.0 mi Calm Calm - N/A   Clear
2:35 AM 66.2 °F - 64.4 °F 94% 30.11 in 7.0 mi Calm Calm - N/A   Clear
2:55 AM 65.5 °F - 63.5 °F 93% 30.11 in 7.0 mi Calm Calm - N/A   Clear
3:15 AM 65.3 °F - 63.7 °F 94% 30.10 in 7.0 mi South 3.5 mph - N/A   Clear
3:35 AM 64.0 °F - 63.5 °F 98% 30.10 in 7.0 mi Calm Calm - N/A   Clear
3:55 AM 66.6 °F - 64.4 °F 93% 30.10 in 7.0 mi Calm Calm - N/A   Clear
4:15 AM 65.5 °F - 63.3 °F 93% 30.10 in 7.0 mi Calm Calm - N/A   Clear
4:35 AM 65.5 °F - 63.7 °F 94% 30.10 in 7.0 mi South 3.5 mph - N/A   Clear
4:55 AM 64.2 °F - 63.3 °F 97% 30.11 in 7.0 mi Calm Calm - N/A   Clear
5:15 AM 65.8 °F - 64.4 °F 95% 30.13 in 7.0 mi Calm Calm - N/A   Clear
5:35 AM 64.4 °F - 63.1 °F 96% 30.13 in 5.0 mi Calm Calm - N/A   Clear
5:55 AM 63.5 °F - 62.8 °F 97% 30.13 in 4.0 mi Calm Calm - N/A   Clear
6:15 AM 63.5 °F - 62.8 °F 97% 30.14 in 4.0 mi SW 3.5 mph - N/A   Clear
6:35 AM 63.9 °F - 63.7 °F 99% 30.15 in 3.0 mi Calm Calm - N/A   Clear
6:55 AM 65.1 °F - 64.2 °F 97% 30.15 in 4.0 mi North - - N/A   Clear
7:15 AM 67.5 °F - 66.7 °F 98% 30.15 in 2.5 mi Calm Calm - N/A   Clear
7:50 AM 69.8 °F - 68.0 °F 94% 30.16 in 4.0 mi Calm Calm - N/A   Clear
8:50 AM 75.2 °F - 69.8 °F 83% 30.17 in 7.0 mi SSE 4.6 mph - N/A   Clear
9:50 AM 78.8 °F - 69.8 °F 74% 30.17 in 10.0 mi Calm Calm - N/A   Clear
10:50 AM 82.4 °F 86.3 °F 69.8 °F 66% 30.17 in 10.0 mi WSW 5.8 mph - N/A   Clear
11:50 AM 84.2 °F 88.4 °F 69.8 °F 62% 30.15 in 10.0 mi SSW 11.5 mph - N/A   Scattered Clouds
12:58 PM 86.0 °F 89.4 °F 68.0 °F 55% 30.12 in 10.0 mi East 11.5 mph - N/A   Scattered Clouds
5:50 PM 87.8 °F 89.4 °F 64.4 °F 46% 30.06 in 10.0 mi South 13.8 mph - N/A   Clear
7:35 PM 85.1 °F 86.4 °F 63.7 °F 49% 30.06 in 10.0 mi SSW 11.5 mph - N/A   Mostly Cloudy
7:55 PM 82.0 °F 83.3 °F 63.1 °F 53% 30.06 in 10.0 mi SSW 9.2 mph - N/A   Scattered Clouds
8:15 PM 81.5 °F 82.8 °F 63.5 °F 54% 30.09 in 10.0 mi West 13.8 mph 19.6 mph N/A   Mostly Cloudy
8:35 PM 79.0 °F - 62.6 °F 57% 30.09 in 10.0 mi West 8.1 mph - N/A   Overcast
8:55 PM 76.5 °F - 63.0 °F 63% 30.09 in 10.0 mi West 8.1 mph - N/A   Scattered Clouds
9:15 PM 75.2 °F - 61.9 °F 63% 30.10 in 10.0 mi West 6.9 mph - N/A   Clear
9:35 PM 73.8 °F - 62.1 °F 67% 30.11 in 10.0 mi West 4.6 mph - N/A   Clear
9:55 PM 72.9 °F - 62.6 °F 70% 30.13 in 10.0 mi WSW 3.5 mph - N/A   Clear
10:15 PM 72.5 °F - 62.6 °F 71% 30.13 in 10.0 mi Calm Calm - N/A   Clear
10:35 PM 72.3 °F - 62.8 °F 72% 30.13 in 10.0 mi Calm Calm - N/A   Clear
10:55 PM 71.6 °F - 63.0 °F 74% 30.13 in 10.0 mi Calm Calm - N/A   Clear
11:15 PM 70.3 °F - 63.3 °F 78% 30.13 in 10.0 mi Calm Calm - N/A   Clear
11:35 PM 68.5 °F - 63.1 °F 83% 30.14 in 10.0 mi Calm Calm - N/A   Clear
11:55 PM 67.3 °F - 63.0 °F 86% 30.14 in 10.0 mi Calm Calm - N/A   Clear